Regional Weather Roundup
Issued by NWS Northern Indiana

Home | Current Version | Previous Version | Text Only | Print | Product List | Glossary On
Versions: 1 2 3 4 5 6 7 8 9 10 11 12 13 14 15 16 17 18 19 20 21 22 23 24 25 26 27 28 29 30 31 32 33 34 35 36 37 38 39 40 41 42 43 44 45 46 47 48 49 50
000
ASUS43 KIWX 290210
RWRIWX

KIWX WEATHER ROUNDUP
NATIONAL WEATHER SERVICE NORTHERN INDIANA
1000 PM EDT THU JUL 28 2016

NOTE: "FAIR" INDICATES FEW OR NO CLOUDS BELOW 12,000 FEET WITH NO
SIGNIFICANT WEATHER AND/OR OBSTRUCTIONS TO VISIBILITY.

* THESE STATIONS ARE NOT UNDER NWS QUALITY CONTROL. THEY ALSO MAY NOT
  REPORT WEATHER SUCH AS PRECIPITATION OR FOG.

INZ001>027-290300-
NORTHERN INDIANA

CITY           SKY/WX    TMP DP  RH WIND       PRES   REMARKS
VALPARAISO     PTCLDY    71  67  87 N5        29.92R
MICHIGAN CITY* CLOUDY    68  68 100 CALM      29.92R
LAPORTE*       PTCLDY    71  71 100 CALM      29.93R
KNOX*          CLEAR     68  63  83 CALM      29.90R
SOUTH BEND     PTCLDY    69  67  93 CALM      29.92R
GOSHEN         PTCLDY    71  67  87 CALM      29.91R
MONTICELLO*    MOCLDY    75  69  80 CALM      29.89R
LOGANSPORT*    CLEAR     73  66  78 N6        29.91R
ROCHESTER*     CLEAR     73  68  83 E3        29.90S
WARSAW*        CLOUDY    70  66  88 CALM      29.91R
ANGOLA*          N/A     75  70  83 CALM      29.89F
FORT WAYNE     MOCLDY    74  71  91 CALM      29.89R
HUNTINGTON*    MOCLDY    73  69  87 CALM      29.89S
MARION*        CLEAR     72  67  85 CALM      29.90S

$$
INZ028>050-290300-
CENTRAL INDIANA

CITY           SKY/WX    TMP DP  RH WIND       PRES   REMARKS
LAFAYETTE      CLEAR     73  71  93 CALM      29.88R
KOKOMO*        CLEAR     72  64  78 CALM      29.89S
MUNCIE*        PTCLDY    78  67  68 CALM      29.90R
INDIANAPOLIS   PTCLDY    74  67  78 CALM      29.91R

$$
MIZ043>046-050>051-056>058-064>065-071>073-077>080-290300-
SOUTHWEST LOWER MICHIGAN

CITY           SKY/WX    TMP DP  RH WIND       PRES   REMARKS
BATTLE CREEK   MOCLDY    68  68 100 N6        29.92R
BENTON HARBOR  MOCLDY    72  65  78 CALM      29.91R
COLDWATER*     CLOUDY    74  68  81 N3        29.90R
HILLSDALE*     MOCLDY    72  65  79 CALM      29.90F
HOLLAND        PTCLDY    71  68  90 CALM      29.93R
GRAND RAPIDS   MOCLDY    69  64  84 N6        29.94R
KALAMAZOO      PTCLDY    70  65  84 N5        29.92R
STURGIS*       CLOUDY    70  69  97 NW5       29.91R
THREE RIVERS*  FAIR      71  68  92 NW3       29.92R

$$
OHZ001>008-015>018-024>025-290300-
NORTHWEST OHIO

CITY           SKY/WX    TMP DP  RH WIND       PRES   REMARKS
DEFIANCE       CLEAR     77  66  68 CALM      29.89R
FINDLAY        CLEAR     77  63  61 E5        29.89R
TOLEDO EXPRESS CLOUDY    77  69  76 E6        29.89R
TOLEDO METCALF MOCLDY    78  73  84 NE3       29.91R
LIMA           CLEAR     73  68  84 E3        29.90S

$$
AND FOR LAKE MICHIGAN COASTAL AND OPEN LAKE BUOY OBSERVATIONS

STATION/POSITION TEMP    WIND        PRES    VSBY  WAVE
                 AIR SEA DIR/SP/G                  HT/PER
                 (F)     (DEG/KT/KT) (MB)    (MI)  (FT/S)
CALUMET HARBOR    75                   N/A
MICHIGAN CITY     75      80/  2/  2   N/A
BURNS HARBOR      77     360/  7/  9 1012.5R
SAINT JOSEPH      73      CALM  /  2 1013.5R
SOUTH LAKE BUOY   75 75  100/  8/ 10 1012.6R         2/ 6
4 MI NW BRIDGMAN  74 77   90/  4/  8 1012.5R         2
MICHIGAN CITY     76 77   70/  6/ 10   N/A           1/ 3

$$
&&




USA.gov is the U.S. government's official web portal to all federal, state and local government web resources and services.